Location: Arroyo de Valdeoliva
(40.1604°N, 4.9878°W)
Time: 01:40:54
(UTC+00:00)

COSMOS 2455 - Pass Details

Date: 11 December 2025
Orbit: 898 x 910 km, 67.1° (Epoch: 14 January)

Event Time Altitude Azimuth Distance (km) Brightness Sun altitude
Rises 19:04:19 0° 197° (SSW) 3,512 6.3 -24.0°
Reaches altitude 10° 19:06:50 10° 194° (SSW) 2,576 5.5 -24.5°
Maximum altitude 19:12:43 63° 114° (ESE) 1,008 2.8 -25.6°
Enters shadow 19:12:51 63° 107° (ESE) 1,009 2.7 -25.6°
